Find Starlink 5316

NORAD ID: 55305 Int'l Des: 2023-010 Owner: SPXS Country: US Constellation: starlink operational
LEOCIRCULAR

Current View

Loading 3D Globe...

About Starlink 5316

Description loading...

Upcoming Passes

Passes for default location (London). Set your location on the main map for personalized predictions.

Altitude History

Loading altitude history...

Two-Line Element Set

1 55305U 23010AN 26149.53006203 .00000727 00000-0 68700-4 0 9996
2 55305 69.9988 180.8147 0003825 271.3368 88.7353 14.98323069185380
Epoch: May 29, 2026 • Age: 23 hours

Current Status

Altitude 575.5 km
Velocity 7.57 km/s
Sub-Earth Point 23.45°N, 130.54°E
Launch Date Jan 19, 2023
Age 3.3 years
Type internet

Technical Details

Classification Payload
Mass 305.00 kg
Dry Mass 290.00 kg
Total Mass 305.00 kg
Length 0.20 m
Diameter 2.80 m
Span 9.00 m
Shape Box + pan
Manufacturer SPXS
Bus Type Starlink
Phase Status In Orbit
Owner/State SPXS/US

Most Searched